Showing default

COSMOS 2504, 40555

Orbit data source: Space-Track

COSMOS 2504, 40555 is a payload satellite owned by TsNIIKhM (CIS) in LEO that was launched on Tue, 31 Mar 2015 UTC via an ROKOT launch vehicle from the Plesetsk Missile And Space Complex (PKMTR). Payloads include a variety of satellites, spacecraft, and rockets equipped with specific instruments for various scientific and technological missions. These include communications satellites like Starlink; space stations such as the ISS; scientific satellites like the Hubble; Earth observation satellites from companies like Planet Labs, Umbra, and HawkEye 360; GPS; miniature CubeSats for education and research; and military/defense satellites.

Loading next visibility...
COSMOS 2504 details
Identifier
40555, 2015-020D
Orbit
LEO
Last TLE update9 hours ago
Origin
Flag of CISTsNIIKhM (CIS)
ManufacturerTsNIIKhM
MissionOperational Defense Technology
Bus & MotorNIVELIR, Unknown motor
Mass~100 kg wet, ~100 kg dry
Launch date (UTC)
2015-03-31 (10 years ago)
Launch vehicle
ROKOT
Launch site
Plesetsk Missile And Space Complex (PKMTR)
Object type
Payload
Rocket body
Debris
Shape & HBRHex Cyl + 1 Ant, 1 m
Radar Cross Section0.352 m², Medium (>0.1 m² and < 1m²)

Expand to show TLE details & history

TLE from 9 hours ago
0 COSMOS 2504
1 40555U 15020D   24361.10341749  .00001281  00000-0  47742-3 0  9991
2 40555  82.5179 287.0048 0609256 296.4991  57.4910 13.60802634476994
Epoch: 2024-12-26T02:28Z
Definitive object data (Epoch: 2024-12-26T02:28:55.271Z)
Latitude-0.00009°
Longitude154.68688°
Altitude813.497 km
Speed7.557 km/s
True Right ascension19h 08m 01s
True Declination0° 00' 00"
Sunlit
Object was in daylight at TLE epoch
Visualization TLE readout
Latitude79.90927°
Longitude-72.87169°
Altitude1,471.168 km
Speed6.926 km/s
Apparent Right ascension00h 04m 41s
Apparent Declination33° 33' 11"
Sunlit
Object is in daylight
Visualization observer readout
Local Sidereal Time11:09:17
Azimuth348.055° N
Elevation-15.423°
Doppler factor1
Orbital elements
Apogee altitude1,481.288 km
Perigee altitude578.604 km
Semi-major axis7,408.083 km
Eccentricity0.0609256
Inclination82.5179°
RAAN287.0048°
Arg. of periapsis296.4991°
True anomaly63.61765°
Mean anomaly57.491°
Eccentric anomaly60.53012°
Mean motion3.40396 °/min
BSTAR0.00047742
Orbital period105.76 mins
Loading maneuver chart data...
Loading historical data...
Loading historical data...
Loading historical data...
Loading historical data...
Loading historical data...
Loading historical data...
Loading historical data...

COSMOS 2504 Visibility forecast

Observer location: undefined°, undefined

Span
Click to sort rows by Start time (UTC) header in descending order
Start Az.
Max El. time (UTC)
Max El. Az.
Max El.
End time (UTC)
End Az.
8 mins2024-12-26 18:29:52.966Z115.751° SE2024-12-26 18:33:52.966Z77.828° E17.171°2024-12-26 18:37:52.966Z42.87° NE
12 mins2024-12-26 20:14:52.966Z195.553° SSW2024-12-26 20:19:52.966Z313.586° NW43.749°2024-12-26 20:26:52.966Z4.784° NNE
5 mins2024-12-26 22:05:52.966Z285.17° WNW2024-12-26 22:07:52.966Z302.682° NW13.129°2024-12-26 22:10:52.966Z326.607° NNW
11 mins2024-12-27 05:33:52.966Z22.31° NNE2024-12-27 05:38:52.966Z62.471° ENE22.809°2024-12-27 05:44:52.966Z112.958° SE
15 mins2024-12-27 07:19:52.966Z348.457° N2024-12-27 07:26:52.966Z263.04° W44.293°2024-12-27 07:34:52.966Z181.886° SSW
7 mins2024-12-27 09:08:52.966Z307.789° NW2024-12-27 09:11:52.966Z285.76° WNW15.017°2024-12-27 09:15:52.966Z256.085° W
|